Weather in Masan

South Korea     35˚15′15″N   128˚37′36″E
temp.,
°C
wind,
m/s
gust,
m/s
humid.,
%
clouds,
%
prec.,
mm/h
press.,
hPa
HPBL,
m
3 december, thu
thu300:00+3˚nnw35453 0.0 1027212
03:00+1˚nnw354511 0.0 1026192
06:00+1˚nnw36403 0.0 1027254
09:00+3˚nnw36397 0.0 1028313
12:00+7˚nnw48370 0.0 1027927
15:00+8˚nnw47400 0.0 10261206
18:00+4˚n25502 0.0 1027431
21:00+2˚nnw375417 0.0 1028462
4 december, fri
fri400:00+1˚nnw365594 0.0 1028420
03:00nnw255790 0.0 1028317
06:00−1˚nnw355725 0.0 1028255
09:00+1˚nw254313 0.0 1029305
12:00+5˚nnw35230 0.0 1028739
15:00+7˚nw362426 0.0 1026932
18:00+4˚nnw25330 0.0 1027385
21:00+1˚nnw24430 0.0 1028231
5 december, sat
sat500:00nnw24600 0.0 1029223
03:00nw24690 0.0 1029246
06:00−1˚nw23750 0.0 1029156
09:00+1˚nw23660 0.0 1030219
12:00+6˚nw35490 0.0 1029821
15:00+7˚nnw36430 0.0 1028965
18:00+4˚n13520 0.0 1029238
21:00+2˚nnw22595 0.0 102986
6 december, sun
sun600:00+2˚nw1259100 0.0 1029113
03:00+2˚nnw2366100 0.0 1029124
06:00+1˚nnw23740 0.0 1029106
09:00+2˚nnw23680 0.0 1029168
12:00+7˚nw24490 0.0 1029634
15:00+10˚nnw23390 0.0 1027765
18:00+6˚nnw12540 0.0 102750
21:00+5˚nnw125914 0.0 102854
7 december, mon
mon700:00+4˚nw1263100 0.0 102857
03:00+3˚nnw236799 0.0 1027103
06:00+2˚nnw237347 0.0 1027105
09:00+4˚nw126424 0.0 1028113
12:00+9˚nw38490 0.0 10271074
15:00+10˚wnw5104615 0.0 10261637
18:00+7˚nnw37620 0.0 1028625
21:00+4˚nnw356519 0.0 1029375